Location: Kuppenheim
(48.8299°N, 8.2568°E)
Time: 07:27:28
(UTC+00:00)

Envisat - Pass Details

Date: 01 December 2022
Orbit: 763 x 765 km, 98.2° (Epoch: 04 February)

Event Time Altitude Azimuth Distance (km) Brightness Sun altitude
Rises 05:33:22 0° 1° (N) 3,246 6.1 -13.5°
Reaches altitude 10° 05:36:34 10° 340° (NNW) 2,315 5.1 -13.0°
Enters shadow 05:39:01 15° 311° (NW) 1,963 4.6 -12.6°
